Regional Weather Roundup
Issued by NWS

Home | Current Version | Previous Version | Text Only | Print | Product List | Glossary On
Versions: 1 2 3 4 5 6 7 8 9 10 11 12 13 14 15 16 17 18 19 20 21 22 23 24 25 26 27 28 29 30 31 32 33 34 35 36 37 38 39 40 41 42 43 44 45 46 47 48 49 50
000
ASUS44 KOUN 191510
RWROK

WEATHER ROUNDUP FOR OKLAHOMA
NATIONAL WEATHER SERVICE NORMAN OK
1000 AM CDT TUE SEP 19 2017

NOTE: "FAIR" INDICATES FEW OR NO CLOUDS BELOW 12,000 FEET WITH NO
      SIGNIFICANT WEATHER AND/OR OBSTRUCTIONS TO VISIBILITY.

OKZ001>007-009>012-014-015-017-191600-
NORTHWEST OKLAHOMA AND THE PANHANDLE

CITY           SKY/WX    TMP DP  RH WIND       PRES   REMARKS
GAGE           SUNNY     78  63  59 S18G28    29.81F
GUYMON         SUNNY     76  56  49 SW18      29.79S
ENID/WOODRING  MOSUNNY   79  70  73 S16       29.81F
$$

OKZ016-021>023-033>039-044-045-191600-
SOUTHWEST OKLAHOMA

CITY           SKY/WX    TMP DP  RH WIND       PRES   REMARKS
LAWTON/REGL    SUNNY     81  73  76 S18       29.87F
LAWTON/FT SILL SUNNY     80  75  83 S15G25    29.86S
CLINTON        SUNNY     76  66  71 S22       29.86S
HOBART         SUNNY     78  69  73 S21       29.85F
ALTUS AFB      SUNNY     80  68  67 S14       29.85F
$$

OKZ018>020-024>031-191600-
CENTRAL OKLAHOMA

CITY           SKY/WX    TMP DP  RH WIND       PRES   REMARKS
OKLAHOMA CITY  MOSUNNY   80  71  74 S18G25    29.87S
OKC/WILEY POST SUNNY     81  72  74 S18G29    29.86R
OKC/TINKER AFB SUNNY     81  71  69 S18       29.87S
STILLWATER     CLOUDY    80  70  71 S14G22    29.85F
GUTHRIE        SUNNY     84  71  65 S13G23    29.85S
$$

OKZ008-013-054>072-191600-
NORTHEAST OKLAHOMA

CITY           SKY/WX    TMP DP  RH WIND       PRES   REMARKS
TULSA          CLOUDY    76  70  82 S10       29.88S
TULSA/JONES    CLOUDY    75  69  81 W8G18     29.88F
PONCA CITY     MOSUNNY   78  69  73 S18       29.84F
BARTLESVILLE   PTSUNNY   72  66  81 S5        29.89R
MUSKOGEE       CLOUDY    74  70  87 N7        29.96R
$$

OKZ032-040>043-046>053-073>077-191600-
SOUTH CENTRAL/SOUTHEAST OKLAHOMA

CITY           SKY/WX    TMP DP  RH WIND       PRES   REMARKS
ARDMORE/DWNTWN MOSUNNY   81  70  69 SW8       29.92S
MCALESTER      MOSUNNY   80  73  79 S9        29.93S
$$





USA.gov is the U.S. government's official web portal to all federal, state and local government web resources and services.